This is the latest recevied weather packets stored in our database for station/object WD7OO. If no packets are shown the sender has not sent any weather packets the latest 10 day(s).
| Time | Temp. | Humidity | Pressure | Rain* | Wind** | Luminosity | Snow |
|---|---|---|---|---|---|---|---|
| 1778081714 | 11.11° C | 43% | 1014.5 hPa | 0 mm | - | 300 W/m² | - |
| 1778081411 | 11.67° C | 42% | 1014.2 hPa | 0 mm | - | 265 W/m² | - |
| 1778081108 | 11.67° C | 44% | 1014.4 hPa | 0 mm | - | 588 W/m² | - |
| 1778080806 | 11.11° C | 45% | 1014.2 hPa | 0 mm | - | 467 W/m² | - |
| 1778080504 | 11.11° C | 45% | 1014.4 hPa | 0 mm | - | 289 W/m² | - |
| 1778080201 | 11.11° C | 53% | 1014.3 hPa | 0 mm | - | 437 W/m² | - |
| 1778079897 | 11.11° C | 49% | 1014.3 hPa | 0 mm | - | 272 W/m² | - |
| 1778079594 | 10.56° C | 44% | 1014.2 hPa | 0 mm | - | 242 W/m² | - |
| 1778079290 | 11.11° C | 44% | 1014.4 hPa | 0 mm | - | 281 W/m² | - |
| 1778078988 | 10.56° C | 48% | 1014.4 hPa | 0 mm | - | 347 W/m² | - |
| 1778078684 | 10.56° C | 49% | 1014.3 hPa | 0 mm | - | 311 W/m² | - |
| 1778078383 | 10.56° C | 45% | 1014.3 hPa | 0 mm | - | 304 W/m² | - |
| 1778078079 | 10.56° C | 47% | 1014.2 hPa | 0 mm | - | 304 W/m² | - |
| 1778077778 | 10.56° C | 44% | 1014.1 hPa | 0 mm | - | 333 W/m² | - |
| 1778077475 | 10° C | 47% | 1014.3 hPa | 0 mm | - | 365 W/m² | - |
| 1778077173 | 10.56° C | 50% | 1014.1 hPa | 0 mm | - | 295 W/m² | - |
| 1778076871 | 10.56° C | 44% | 1014 hPa | 0 mm | - | 293 W/m² | - |
| 1778076569 | 10° C | 49% | 1014 hPa | 0 mm | - | 267 W/m² | - |
| 1778076266 | 10° C | 49% | 1013.9 hPa | 0 mm | - | 237 W/m² | - |
| 1778075963 | 10° C | 49% | 1013.9 hPa | 0 mm | - | 186 W/m² | - |
| 1778075660 | 10° C | 48% | 1013.8 hPa | 0 mm | - | 172 W/m² | - |
| 1778075356 | 10° C | 45% | 1013.8 hPa | 0 mm | - | 217 W/m² | - |
| 1778075052 | 10° C | 49% | 1013.7 hPa | 0 mm | - | 208 W/m² | - |
| 1778074749 | 10° C | 47% | 1013.6 hPa | 0 mm | - | 199 W/m² | - |
| 1778074446 | 10° C | 46% | 1013.4 hPa | 0 mm | - | 264 W/m² | - |
* Rain latest hour (hover to see other rain measurements)
** Current wind speed in m/s (hover to see current wind gust speed)